Location: Pella
(41.4080°N, 92.9160°W)
Time: 23:55:33
(UTC-06:00)

ASTRO E2 - Visible Passes

Search period start: 13 February 2016 00:00
Search period end: 23 February 2016 00:00
Orbit: 520 x 526 km, 31.4° (Epoch: 12 February)

Date Brightness Start Highest point End Pass type
(mag) Time Alt. Az. Time Alt. Az. Time Alt. Az.
19 Feb 5.6 06:29:56 10° S 06:30:37 10° SSE 06:31:18 10° SSE visible
20 Feb 5.4 06:13:33 10° S 06:15:03 12° SSE 06:16:32 10° SE visible
21 Feb 5.3 05:57:32 10° SSW 05:59:29 13° SSE 06:01:24 10° SE visible
22 Feb 5.2 05:41:40 10° SSW 05:43:53 14° SSE 05:46:07 10° SE visible
